Tracking 18840 objects as of 20-November-2017
HD Live streaming from Space Station
objects crossing your sky now

FENGYUN 1C DEB

Track FENGYUN 1C DEB now!
10-day predictions


NORAD ID: 41001
Int'l Code: 1999-025EXF
Perigee: 812.1 km
Apogee: 865.5 km
Inclination: 99.0 °
Period: 101.5 minutes
Semi major axis: 7209 km
RCS: Unknown
Launch date: May 10, 1999
Source: People's Republic of China (PRC)
Launch site: Taiyaun Space Center, China (TSC)

Note: This is SATELLITE DEBRIS
aabbcc
Your satellite tracking list
Your tracking list is empty




NASA's NSSDC Master Catalog

Two Line Element Set (TLE):
1 41001U 99025EXF 17323.23134437  .00001416  00000-0  70695-3 0  9996
2 41001  98.9864 317.6398 0037011 196.5828 220.9653 14.18137154191799
Source of the keplerian elements: AFSPC